When you browse on this site, cookies collect data to enhance your experience and personalize the content and advertising you see.
Visit our Privacy Policy to learn more. By continuing to use the site, you agree to this use of cookies and data.
  • In Lithuania
  • List of Countries
  • For 7 days
  • Water Temperature
  • Satellite Maps
  • Weather Map
  • Weather Widgets
  • user-avatar
    Login

    Hourly Weather Prince George

    Today, 21 July, Sunday

    Time Temperature Precipitation Wind Pressure Humidity
    00:00 +11°C° 0 mm 1 mps 704 mmHg 90%
    01:00 +11°C° 0 mm 1 mps 704 mmHg 91%
    02:00 +11°C° 0 mm 1 mps 704 mmHg 91%
    03:00 +10°C° 0 mm 1 mps 704 mmHg 92%
    04:00 +10°C° 0 mm 1 mps 704 mmHg 93%
    05:00 +12°C° 0 mm 1 mps 704 mmHg 87%
    06:00 +13°C° 0 mm 1 mps 704 mmHg 81%
    07:00 +15°C° 0 mm 1 mps 704 mmHg 75%
    08:00 +18°C° 0 mm 1 mps 704 mmHg 67%
    09:00 +20°C° 0 mm 1 mps 704 mmHg 60%
    10:00 +23°C° 0 mm 1 mps 704 mmHg 52%
    11:00 +24°C° 0 mm 1 mps 704 mmHg 49%
    12:00 +25°C° 0 mm 1 mps 704 mmHg 45%
    13:00 +26°C° 0 mm 1 mps 704 mmHg 42%
    14:00 +26°C° 0 mm 2 mps 703 mmHg 39%
    15:00 +27°C° 0 mm 2 mps 703 mmHg 37%
    16:00 +27°C° 0 mm 2 mps 703 mmHg 35%
    17:00 +26°C° 0 mm 1 mps 703 mmHg 43%
    18:00 +24°C° 0 mm 1 mps 703 mmHg 52%
    19:00 +23°C° 0 mm 1 mps 703 mmHg 61%
    20:00 +20°C° 0 mm 1 mps 703 mmHg 66%
    21:00 +18°C° 0 mm 1 mps 703 mmHg 71%
    22:00 +15°C° 0 mm 1 mps 703 mmHg 76%
    23:00 +14°C° 0 mm 1 mps 703 mmHg 79%

    Tomorrow, 22 July, Monday

    Time Temperature Precipitation Wind Pressure Humidity
    00:00 +14°C° 0 mm 1 mps 703 mmHg 82%
    01:00 +13°C° 0 mm 1 mps 703 mmHg 85%
    02:00 +11°C° 0 mm 0 mps 703 mmHg 87%
    03:00 +11°C° 0 mm 0 mps 703 mmHg 90%
    04:00 +10°C° 0 mm 0 mps 703 mmHg 92%
    05:00 +12°C° 0 mm 0 mps 703 mmHg 85%
    06:00 +14°C° 0 mm 0 mps 703 mmHg 78%
    07:00 +16°C° 0 mm 0 mps 703 mmHg 71%
    08:00 +18°C° 0 mm 0 mps 703 mmHg 64%
    09:00 +21°C° 0 mm 0 mps 703 mmHg 57%
    10:00 +24°C° 0 mm 0 mps 703 mmHg 50%
    11:00 +27°C° 0 mm 1 mps 703 mmHg 46%
    12:00 +28°C° 0 mm 1 mps 703 mmHg 42%
    13:00 +30°C° 0 mm 1 mps 703 mmHg 38%
    14:00 +30°C° 0 mm 1 mps 703 mmHg 37%
    15:00 +30°C° 0 mm 1 mps 702 mmHg 36%
    16:00 +30°C° 0 mm 1 mps 702 mmHg 35%
    17:00 +28°C° 0 mm 1 mps 701 mmHg 45%
    18:00 +26°C° 0 mm 1 mps 701 mmHg 54%
    19:00 +24°C° 0 mm 1 mps 701 mmHg 63%
    20:00 +22°C° 0 mm 1 mps 701 mmHg 66%
    21:00 +21°C° 0 mm 1 mps 701 mmHg 69%
    22:00 +19°C° 0 mm 1 mps 701 mmHg 72%
    23:00 +18°C° 0 mm 1 mps 701 mmHg 77%

    Day after tomorrow, 23 July, Tuesday

    Time Temperature Precipitation Wind Pressure Humidity
    00:00 +15°C° 0 mm 1 mps 701 mmHg 82%
    01:00 +13°C° 0 mm 0 mps 701 mmHg 88%
    02:00 +14°C° 0 mm 1 mps 701 mmHg 90%
    03:00 +13°C° 0 mm 1 mps 701 mmHg 92%
    04:00 +12°C° 0 mm 1 mps 701 mmHg 94%
    05:00 +14°C° 0 mm 1 mps 702 mmHg 89%
    06:00 +15°C° 0 mm 1 mps 702 mmHg 83%
    07:00 +18°C° 0 mm 1 mps 703 mmHg 77%
    08:00 +20°C° 0 mm 1 mps 703 mmHg 70%
    09:00 +22°C° 0 mm 1 mps 702 mmHg 63%
    10:00 +24°C° 0 mm 1 mps 702 mmHg 56%
    11:00 +25°C° 0 mm 1 mps 702 mmHg 52%
    12:00 +27°C° 0 mm 1 mps 702 mmHg 48%
    13:00 +28°C° 0 mm 1 mps 702 mmHg 43%
    14:00 +28°C° 0 mm 1 mps 702 mmHg 43%
    15:00 +28°C° 0 mm 1 mps 701 mmHg 44%
    16:00 +28°C° 0 mm 1 mps 700 mmHg 44%
    17:00 +26°C° 0 mm 1 mps 700 mmHg 52%
    18:00 +25°C° 0 mm 1 mps 700 mmHg 61%
    19:00 +23°C° 0 mm 1 mps 699 mmHg 70%
    20:00 +21°C° 0.1 mm 1 mps 699 mmHg 73%
    21:00 +19°C° 0.1 mm 1 mps 699 mmHg 77%
    22:00 +18°C° 0.1 mm 1 mps 699 mmHg 81%
    23:00 +16°C° 0.9 mm 1 mps 699 mmHg 86%

    24 July, Wednesday

    Time Temperature Precipitation Wind Pressure Humidity
    00:00 +16°C° 0.9 mm 2 mps 699 mmHg 90%
    01:00 +14°C° 0.9 mm 3 mps 699 mmHg 95%
    02:00 +13°C° 3.5 mm 3 mps 699 mmHg 95%
    03:00 +12°C° 3.5 mm 3 mps 699 mmHg 96%
    04:00 +12°C° 3.5 mm 4 mps 699 mmHg 97%
    05:00 +12°C° 1.7 mm 3 mps 700 mmHg 97%
    06:00 +12°C° 1.7 mm 3 mps 700 mmHg 97%
    07:00 +13°C° 1.7 mm 2 mps 700 mmHg 96%
    08:00 +13°C° 0.4 mm 2 mps 700 mmHg 94%
    09:00 +14°C° 0.4 mm 2 mps 700 mmHg 92%
    10:00 +14°C° 0.4 mm 2 mps 700 mmHg 89%
    11:00 +17°C° 0 mm 2 mps 700 mmHg 74%
    12:00 +19°C° 0 mm 2 mps 701 mmHg 58%
    13:00 +21°C° 0 mm 3 mps 701 mmHg 42%
    14:00 +22°C° 0 mm 3 mps 701 mmHg 40%
    15:00 +22°C° 0 mm 3 mps 701 mmHg 37%
    16:00 +24°C° 0 mm 3 mps 701 mmHg 35%
    17:00 +21°C° 0 mm 3 mps 701 mmHg 41%
    18:00 +20°C° 0 mm 3 mps 700 mmHg 48%
    19:00 +19°C° 0 mm 2 mps 700 mmHg 55%
    20:00 +18°C° 0 mm 3 mps 700 mmHg 56%
    21:00 +16°C° 0 mm 3 mps 700 mmHg 56%
    22:00 +13°C° 0 mm 3 mps 701 mmHg 56%
    23:00 +12°C° 0 mm 3 mps 701 mmHg 58%

    25 July, Thursday

    Time Temperature Precipitation Wind Pressure Humidity
    00:00 +11°C° 0 mm 3 mps 701 mmHg 61%
    01:00 +10°C° 0 mm 2 mps 701 mmHg 64%
    02:00 +9°C° 0 mm 2 mps 701 mmHg 67%
    03:00 +9°C° 0 mm 2 mps 701 mmHg 69%
    04:00 +8°C° 0 mm 2 mps 701 mmHg 72%
    05:00 +10°C° 0 mm 2 mps 701 mmHg 68%
    06:00 +11°C° 0 mm 3 mps 702 mmHg 64%
    07:00 +13°C° 0 mm 3 mps 702 mmHg 59%
    08:00 +16°C° 0 mm 3 mps 702 mmHg 55%
    09:00 +18°C° 0 mm 3 mps 702 mmHg 50%
    10:00 +20°C° 0 mm 3 mps 702 mmHg 45%
    11:00 +21°C° 0 mm 3 mps 701 mmHg 42%
    12:00 +22°C° 0 mm 3 mps 701 mmHg 40%
    13:00 +25°C° 0 mm 3 mps 701 mmHg 37%
    14:00 +25°C° 0 mm 3 mps 701 mmHg 38%
    15:00 +25°C° 0 mm 2 mps 700 mmHg 39%
    16:00 +25°C° 0 mm 2 mps 700 mmHg 41%
    17:00 +23°C° 0 mm 2 mps 700 mmHg 48%
    18:00 +22°C° 0 mm 1 mps 699 mmHg 55%
    19:00 +20°C° 0 mm 1 mps 699 mmHg 62%
    20:00 +19°C° 0 mm 1 mps 699 mmHg 64%
    21:00 +16°C° 0 mm 0 mps 699 mmHg 66%
    22:00 +15°C° 0 mm 0 mps 699 mmHg 68%
    23:00 +15°C° 0 mm 0 mps 700 mmHg 68%

    26 July, Friday

    Time Temperature Precipitation Wind Pressure Humidity
    00:00 +15°C° 0 mm 0 mps 700 mmHg 68%
    01:00 +15°C° 0 mm 1 mps 700 mmHg 69%
    02:00 +14°C° 0.2 mm 0 mps 700 mmHg 76%
    03:00 +13°C° 0.2 mm 0 mps 700 mmHg 83%
    04:00 +12°C° 0.2 mm 0 mps 700 mmHg 90%
    05:00 +13°C° 0.1 mm 0 mps 700 mmHg 91%
    06:00 +13°C° 0.1 mm 0 mps 700 mmHg 91%
    07:00 +14°C° 0.1 mm 0 mps 700 mmHg 91%
    08:00 +15°C° 0.3 mm 0 mps 700 mmHg 85%
    09:00 +17°C° 0.3 mm 0 mps 700 mmHg 80%
    10:00 +18°C° 0.3 mm 0 mps 699 mmHg 74%
    11:00 +18°C° 1.1 mm 0 mps 699 mmHg 75%
    12:00 +19°C° 1.1 mm 0 mps 699 mmHg 76%
    13:00 +19°C° 1.1 mm 0 mps 698 mmHg 77%
    14:00 +19°C° 0.6 mm 1 mps 698 mmHg 82%
    15:00 +18°C° 0.6 mm 1 mps 698 mmHg 87%
    16:00 +16°C° 0.6 mm 1 mps 697 mmHg 92%
    17:00 +15°C° 1.5 mm 1 mps 697 mmHg 93%
    18:00 +14°C° 1.5 mm 1 mps 697 mmHg 95%
    19:00 +12°C° 1.5 mm 0 mps 697 mmHg 97%
    20:00 +13°C° 0.2 mm 1 mps 698 mmHg 97%
    21:00 +12°C° 0.2 mm 1 mps 698 mmHg 97%
    22:00 +12°C° 0.2 mm 2 mps 698 mmHg 97%
    23:00 +10°C° 0 mm 2 mps 699 mmHg 97%
    Show more